Location: Dammartin
(48.9032°N, 1.6195°E)
Time: 10:25:17
(UTC+00:00)

SO-50 - Pass Details

Date: 11 December 2023
Orbit: 607 x 661 km, 64.6° (Epoch: 21 February)

Event Time Altitude Azimuth Distance (km) Brightness Sun altitude
Exits shadow 05:31:07 12° 351° (N) 1,915 ? -19.6°
Maximum altitude 05:31:11 12° 352° (N) 1,914 ? -19.6°
Drops below altitude 10° 05:32:56 10° 14° (NNE) 2,034 ? -19.3°
Sets 05:36:44 0° 47° (NE) 2,927 ? -18.7°
